Tracking 19212 objects as of 16-Jul-2018
HD Live streaming from Space Station
objects crossing your sky now

FENGYUN 1C DEB

Track FENGYUN 1C DEB now!
10-day predictions


NORAD ID: 30111
Int'l Code: 1999-025RQ
Perigee: 675.7 km
Apogee: 829.2 km
Inclination: 101.6 °
Period: 99.7 minutes
Semi major axis: 7123 km
RCS: 0.0244 m2 (small)
Launch date: May 10, 1999
Source: People's Republic of China (PRC)
Launch site: Taiyaun Space Center, China (TSC)

Note: This is SATELLITE DEBRIS
aabbcc
Your satellite tracking list
Your tracking list is empty




NASA's NSSDC Master Catalog

Two Line Element Set (TLE):
1 30111U 99025RQ  18196.32742927  .00001843  00000-0  52393-3 0  9993
2 30111 101.6050 132.6851 0107737  58.8732  90.8672 14.43994543597565
Source of the keplerian elements: AFSPC